Weather History for Gwinner, ND

Change the Weather History Date:

Wednesday, October 24, 2012

  Actual Average (KP67) Record (KP67)
Temperature  
Mean Temperature 42 °F -  
Max Temperature 48 °F 48 °F 48 °F (1996)
Min Temperature 35 °F 28 °F 26 °F (1997)
Degree Days  
Heating Degree Days 24    
Moisture  
Dew Point 37 °F    
Average Humidity 87    
Maximum Humidity 100    
Minimum Humidity 76    
Precipitation  
Precipitation 0.00 in - - ()
Sea Level Pressure  
Sea Level Pressure 29.95 in    
Wind  
Wind Speed 12 mph (NNW)    
Max Wind Speed 18 mph    
Max Gust Speed 21 mph    
Visibility 10 miles    
Events      
Averages and records for this station are not official NWS values.
T = Trace of Precipitation, MM = Missing Value Source: NWS Daily Summary

Daily Weather History Graph

Daily Weather History Graph

Search for Another Location

Airport:

Trip Planner

Search our weather history database for the weather conditions in past years. The results will help you decide how hot, cold, wet, or windy it might be!

Date:

Astronomy

Oct. 24, 2012 Rise Set
Actual Time 8:00 AM CDT 6:27 PM CDT
Civil Twilight 7:30 AM CDT 6:58 PM CDT
Nautical Twilight 6:55 AM CDT 7:33 PM CDT
Astronomical Twilight 6:20 AM CDT 8:08 PM CDT
Moon 3:58 PM CDT (10/24) 2:41 AM CDT (10/24)
Length of Visible Light 11h 28m
Length of Day
10h 26m
Waxing Gibbous, 76% of the Moon is Illuminated
Oct 24
Waxing Gibbous
Oct 29
Full
Nov 6
Last Quarter
Nov 13
New
Nov 20
First Quarter

Hourly Weather History & Observations

Time (CDT) Temp. Windchill Dew Point Humidity Pressure Visibility Wind Dir Wind Speed Gust Speed Precip Events Conditions
12:15 AM 48.2 °F - 48.2 °F 100% 29.85 in 10.0 mi WNW 13.8 mph - 0.00 in   Overcast
12:35 AM 48.2 °F - 46.4 °F 93% 29.85 in 10.0 mi WNW 17.3 mph - 0.00 in   Overcast
12:55 AM 48.2 °F - 46.4 °F 93% 29.85 in 10.0 mi WNW 15.0 mph 19.6 mph 0.00 in   Overcast
1:35 AM 46.4 °F 40.1 °F 44.6 °F 93% 29.88 in 10.0 mi WNW 15.0 mph 19.6 mph 0.00 in   Mostly Cloudy
1:55 AM 46.4 °F 40.4 °F 44.6 °F 93% 29.87 in 10.0 mi NW 13.8 mph - 0.00 in   Mostly Cloudy
2:15 AM 44.6 °F 39.7 °F 44.6 °F 100% 29.90 in 10.0 mi West 9.2 mph - 0.00 in   Partly Cloudy
2:35 AM 44.6 °F 38.8 °F 44.6 °F 100% 29.86 in 10.0 mi NNW 11.5 mph - 0.00 in   Mostly Cloudy
2:55 AM 44.6 °F 40.7 °F 42.8 °F 93% 29.84 in 10.0 mi North 6.9 mph - 0.00 in   Overcast
3:15 AM 44.6 °F 40.2 °F 42.8 °F 93% 29.86 in 10.0 mi NNW 8.1 mph - 0.00 in   Overcast
3:35 AM 44.6 °F 41.4 °F 41.0 °F 87% 29.88 in 10.0 mi NW 5.8 mph - 0.00 in   Mostly Cloudy
3:55 AM 44.6 °F 43.1 °F 41.0 °F 87% 29.90 in 10.0 mi SW 3.5 mph - 0.00 in   Clear
4:15 AM 44.6 °F 40.2 °F 41.0 °F 87% 29.90 in 10.0 mi NW 8.1 mph - 0.00 in   Mostly Cloudy
4:35 AM 44.6 °F 39.7 °F 39.2 °F 81% 29.89 in 10.0 mi NW 9.2 mph - 0.00 in   Overcast
4:55 AM 42.8 °F 36.6 °F 39.2 °F 87% 29.88 in 10.0 mi NNW 11.5 mph - 0.00 in   Scattered Clouds
5:15 AM 42.8 °F 38.0 °F 39.2 °F 87% 29.89 in 10.0 mi NNW 8.1 mph - 0.00 in   Clear
5:35 AM 42.8 °F 36.6 °F 39.2 °F 87% 29.90 in 10.0 mi NW 11.5 mph - 0.00 in   Partly Cloudy
5:55 AM 42.8 °F 38.0 °F 39.2 °F 87% 29.92 in 10.0 mi NW 8.1 mph - 0.00 in   Partly Cloudy
6:15 AM 42.8 °F 38.6 °F 37.4 °F 81% 29.93 in 10.0 mi NW 6.9 mph - 0.00 in   Clear
6:35 AM 42.8 °F 40.1 °F 37.4 °F 81% 29.93 in 10.0 mi NW 4.6 mph - 0.00 in   Partly Cloudy
6:55 AM 42.8 °F 39.3 °F 37.4 °F 81% 29.94 in 10.0 mi NW 5.8 mph - 0.00 in   Clear
7:15 AM 42.8 °F 38.0 °F 37.4 °F 81% 29.96 in 10.0 mi NW 8.1 mph - 0.00 in   Partly Cloudy
7:55 AM 42.8 °F 41.1 °F 39.2 °F 87% 29.97 in 10.0 mi WNW 3.5 mph - 0.00 in   Mostly Cloudy
8:15 AM 42.8 °F 38.6 °F 39.2 °F 87% 29.97 in 10.0 mi NW 6.9 mph - 0.00 in   Partly Cloudy
8:35 AM 42.8 °F 37.0 °F 37.4 °F 81% 29.97 in 10.0 mi NW 10.4 mph - 0.00 in   Scattered Clouds
8:55 AM 42.8 °F 36.2 °F 35.6 °F 76% 29.97 in 10.0 mi NW 12.7 mph - 0.00 in   Scattered Clouds
9:15 AM 41.0 °F 35.8 °F 37.4 °F 87% 29.96 in 10.0 mi NNW 8.1 mph - 0.00 in   Mostly Cloudy
9:35 AM 41.0 °F 33.9 °F 37.4 °F 87% 29.96 in 10.0 mi NW 12.7 mph - 0.00 in   Mostly Cloudy
9:55 AM 39.2 °F 30.5 °F 35.6 °F 87% 29.96 in 10.0 mi NW 16.1 mph - 0.00 in   Mostly Cloudy
10:15 AM 39.2 °F 30.8 °F 35.6 °F 87% 29.96 in 10.0 mi NNW 15.0 mph - 0.00 in   Scattered Clouds
10:35 AM 39.2 °F 31.2 °F 35.6 °F 87% 29.96 in 10.0 mi NNW 13.8 mph 20.7 mph 0.00 in   Scattered Clouds
10:55 AM 39.2 °F 30.5 °F 35.6 °F 87% 29.96 in 10.0 mi NNW 16.1 mph - 0.00 in   Scattered Clouds
11:15 AM 39.2 °F 30.8 °F 35.6 °F 87% 29.97 in 10.0 mi NNW 15.0 mph - 0.00 in   Mostly Cloudy
11:35 AM 39.2 °F 30.8 °F 35.6 °F 87% 29.98 in 10.0 mi NNW 15.0 mph - 0.00 in   Mostly Cloudy
11:55 AM 39.2 °F 31.6 °F 35.6 °F 87% 29.97 in 10.0 mi NNW 12.7 mph - 0.00 in   Mostly Cloudy
12:15 PM 39.2 °F 32.0 °F 35.6 °F 87% 29.98 in 10.0 mi NNW 11.5 mph - 0.00 in   Scattered Clouds
12:35 PM 39.2 °F 31.6 °F 35.6 °F 87% 29.98 in 10.0 mi NNW 12.7 mph - 0.00 in   Clear
12:55 PM 39.2 °F 31.6 °F 35.6 °F 87% 29.98 in 10.0 mi NW 12.7 mph - 0.00 in   Scattered Clouds
1:15 PM 39.2 °F 31.2 °F 35.6 °F 87% 29.98 in 10.0 mi NNW 13.8 mph - 0.00 in   Mostly Cloudy
1:35 PM 39.2 °F 31.2 °F 35.6 °F 87% 29.98 in 10.0 mi NNW 13.8 mph - 0.00 in   Mostly Cloudy
2:15 PM 39.2 °F 30.8 °F 35.6 °F 87% 29.97 in 10.0 mi NNW 15.0 mph 19.6 mph 0.00 in   Mostly Cloudy
2:35 PM 39.2 °F 30.8 °F 35.6 °F 87% 29.96 in 10.0 mi NNW 15.0 mph 19.6 mph 0.00 in   Mostly Cloudy
2:55 PM 39.2 °F 30.2 °F 35.6 °F 87% 29.95 in 10.0 mi NNW 17.3 mph - 0.00 in   Mostly Cloudy
3:15 PM 39.2 °F 30.2 °F 35.6 °F 87% 29.95 in 10.0 mi NNW 17.3 mph - 0.00 in   Mostly Cloudy
3:35 PM 39.2 °F 29.8 °F 35.6 °F 87% 29.94 in 10.0 mi NNW 18.4 mph - 0.00 in   Scattered Clouds
4:15 PM 39.2 °F 32.0 °F 35.6 °F 87% 29.95 in 10.0 mi North 11.5 mph - 0.00 in   Scattered Clouds
4:35 PM 39.2 °F 32.0 °F 35.6 °F 87% 29.96 in 10.0 mi North 11.5 mph - 0.00 in   Scattered Clouds
4:55 PM 39.2 °F 30.8 °F 35.6 °F 87% 29.95 in 10.0 mi North 15.0 mph - 0.00 in   Partly Cloudy
5:15 PM 39.2 °F 31.2 °F 33.8 °F 81% 29.95 in 10.0 mi North 13.8 mph - 0.00 in   Clear
5:35 PM 39.2 °F 31.2 °F 33.8 °F 81% 29.95 in 10.0 mi North 13.8 mph - 0.00 in   Scattered Clouds
5:55 PM 39.2 °F 31.6 °F 35.6 °F 87% 29.96 in 10.0 mi North 12.7 mph - 0.00 in   Scattered Clouds
6:15 PM 39.2 °F 32.0 °F 35.6 °F 87% 29.97 in 10.0 mi North 11.5 mph - 0.00 in   Partly Cloudy
6:35 PM 39.2 °F 31.2 °F 33.8 °F 81% 29.98 in 10.0 mi NNW 13.8 mph - 0.00 in   Mostly Cloudy
6:55 PM 37.4 °F 29.8 °F 33.8 °F 87% 29.98 in 10.0 mi NNW 11.5 mph - 0.00 in   Scattered Clouds
7:15 PM 37.4 °F 29.8 °F 33.8 °F 87% 29.98 in 10.0 mi NNW 11.5 mph - 0.00 in   Partly Cloudy
7:35 PM 37.4 °F 28.9 °F 33.8 °F 87% 29.99 in 10.0 mi NNW 13.8 mph 19.6 mph 0.00 in   Partly Cloudy
7:55 PM 37.4 °F 28.9 °F 33.8 °F 87% 30.00 in 10.0 mi NNW 13.8 mph 18.4 mph 0.00 in   Mostly Cloudy
8:15 PM 37.4 °F 29.3 °F 32.0 °F 81% 30.02 in 10.0 mi NNW 12.7 mph - 0.00 in   Overcast
8:35 PM 37.4 °F 28.2 °F 33.8 °F 87% 30.03 in 9.0 mi NNW 16.1 mph - 0.00 in   Overcast
8:55 PM 35.6 °F 25.9 °F 33.8 °F 93% 30.01 in 5.0 mi NNW 16.1 mph - 0.00 in   Overcast
9:15 PM 35.6 °F 27.5 °F 33.8 °F 93% 30.01 in 10.0 mi North 11.5 mph - 0.00 in   Scattered Clouds
9:35 PM 35.6 °F 27.1 °F 32.0 °F 87% 30.01 in 10.0 mi NNW 12.7 mph - 0.00 in   Mostly Cloudy
9:55 PM 35.6 °F 27.5 °F 32.0 °F 87% 30.01 in 10.0 mi NNW 11.5 mph - 0.00 in   Mostly Cloudy
10:15 PM 35.6 °F 27.5 °F 32.0 °F 87% 30.01 in 10.0 mi North 11.5 mph - 0.00 in   Clear
10:35 PM 35.6 °F 28.0 °F 32.0 °F 87% 30.02 in 10.0 mi NNW 10.4 mph - 0.00 in   Partly Cloudy
10:55 PM 35.6 °F 27.1 °F 32.0 °F 87% 30.02 in 10.0 mi NNW 12.7 mph - 0.00 in   Partly Cloudy
11:15 PM 35.6 °F 26.2 °F 32.0 °F 87% 30.02 in 10.0 mi NNW 15.0 mph - 0.00 in   Clear
11:55 PM 35.6 °F 26.2 °F 30.2 °F 81% 30.02 in 10.0 mi North 15.0 mph - 0.00 in   Scattered Clouds